period_start,C,m1,H,J0,J1,J2,J3,J4,J5,JA,JB,JC,JD,JJ,JK,JN,#
2017-06-10 00:04:37,-0.01,0.12,0.00,25.81,29.12,31.60,13.85,45.42,1021.01,2023.57,3425.00,3055.44,3507.94,600.34,593.23,24.61,0000 0000 0000 0000 000000
2017-06-10 00:09:38,-0.01,0.12,0.00,25.84,29.14,31.61,13.75,45.38,1021.01,2023.19,3424.96,3055.05,3507.27,599.78,592.80,24.66,0000 0000 0000 0000 000000
2017-06-10 00:14:40,-0.00,0.12,0.00,25.87,29.16,31.63,13.77,45.42,1021.01,2023.04,3424.77,3055.00,3507.01,599.85,592.74,24.71,0000 0000 0000 0000 000000
2017-06-10 00:19:41,0.00,0.12,0.00,25.89,29.17,31.65,13.74,45.35,1021.02,2023.01,3424.14,3054.97,3506.99,599.82,592.59,24.76,0000 0000 0000 0000 000000
2017-06-10 00:24:42,0.00,0.12,0.00,25.92,29.20,31.66,13.74,45.27,1021.03,2023.00,3424.01,3054.80,3506.95,600.01,592.80,24.81,0000 0000 0000 0000 000000
2017-06-10 00:29:43,0.02,0.12,0.00,25.95,29.22,31.69,13.74,45.42,1021.02,2023.00,3423.99,3054.15,3506.36,599.96,592.71,24.86,0000 0000 0000 0000 000000
2017-06-10 00:34:44,0.00,0.12,0.00,25.98,29.24,31.72,13.79,45.41,1021.05,2022.99,3423.90,3054.00,3506.01,599.65,592.35,24.91,0000 0000 0000 0000 000000
2017-06-10 00:39:45,0.01,0.12,0.00,26.00,29.26,31.73,13.77,45.36,1021.08,2022.99,3423.19,3053.98,3505.98,599.93,592.59,24.96,0000 0000 0000 0000 000000
2017-06-10 00:44:47,0.02,0.12,0.00,26.03,29.28,31.73,13.82,45.37,1021.18,2022.98,3422.99,3053.63,3505.52,600.08,592.73,25.01,0000 0000 0000 0000 000000
2017-06-10 00:49:48,0.01,0.12,0.00,26.07,29.30,31.77,13.82,45.42,1021.18,2022.95,3422.87,3053.09,3505.03,599.89,592.34,25.06,0000 0000 0000 0000 000000
2017-06-10 00:54:49,-0.01,0.12,0.00,26.08,29.32,31.80,13.83,45.47,1021.26,2022.70,3422.18,3053.00,3504.98,600.31,592.74,25.11,0000 0000 0000 0000 000000
2017-06-10 00:59:50,-0.02,0.12,0.00,26.11,29.35,31.81,13.76,45.20,1021.23,2022.19,3421.93,3052.68,3504.27,600.00,592.52,25.16,0000 0000 0000 0000 000000
2017-06-10 01:04:52,0.02,0.12,0.00,26.15,29.37,31.84,13.76,45.33,1021.34,2022.05,3421.20,3052.05,3503.98,600.00,592.51,25.21,0000 0000 0000 0000 000000
2017-06-10 01:09:53,0.02,0.12,0.00,26.19,29.39,31.85,13.81,45.39,1021.48,2022.01,3420.79,3051.79,3503.33,600.09,592.62,25.26,0000 0000 0000 0000 000000
2017-06-10 01:14:55,0.02,0.12,0.00,26.23,29.41,31.88,13.79,45.27,1021.49,2022.00,3420.04,3051.07,3502.96,600.01,592.40,25.31,0000 0000 0000 0000 000000
2017-06-10 01:19:56,0.02,0.13,0.00,26.29,29.44,31.91,13.77,45.28,1021.50,2022.00,3419.66,3050.96,3502.25,600.06,592.38,25.36,0000 0000 0000 0000 000000
2017-06-10 01:24:57,0.03,0.13,0.00,26.32,29.46,31.93,13.76,45.42,1021.50,2022.00,3419.02,3050.28,3501.99,600.31,592.57,25.41,0000 0000 0000 0000 000000
2017-06-10 01:29:58,0.01,0.13,0.00,26.38,29.49,31.95,13.76,45.37,1021.48,2022.00,3418.89,3050.00,3501.43,599.89,592.11,25.46,0000 0000 0000 0000 000000
2017-06-10 01:35:00,0.01,0.13,0.00,26.42,29.51,31.97,13.83,45.30,1021.43,2021.97,3418.22,3049.88,3501.02,600.20,592.19,25.51,0000 0000 0000 0000 000000
2017-06-10 01:40:01,-0.01,0.13,0.00,26.46,29.55,32.00,13.77,45.27,1021.50,2021.67,3417.89,3049.07,3500.49,599.98,591.96,25.56,0000 0000 0000 0000 000000
2017-06-10 01:45:02,-0.00,0.13,0.00,26.52,29.57,32.03,13.72,45.33,1021.50,2021.16,3417.08,3048.63,3499.95,599.92,591.80,25.61,0000 0000 0000 0000 000000
2017-06-10 01:50:03,0.02,0.13,0.00,26.55,29.60,32.06,13.74,45.35,1021.50,2021.04,3416.83,3048.04,3499.18,599.98,591.75,25.66,0000 0000 0000 0000 000000
2017-06-10 01:55:05,0.02,0.13,0.00,26.58,29.63,32.09,13.78,45.38,1021.50,2021.01,3416.09,3047.73,3498.79,599.85,591.58,25.71,0000 0000 0000 0000 000000
2017-06-10 02:00:06,0.03,0.13,0.00,26.64,29.66,32.12,13.73,45.31,1021.50,2021.00,3415.62,3047.02,3498.04,600.17,591.72,25.76,0000 0000 0000 0000 000000
2017-06-10 02:05:08,0.04,0.13,0.00,26.69,29.70,32.15,13.80,45.30,1021.50,2021.00,3414.99,3046.32,3497.25,600.08,591.54,25.81,0000 0000 0000 0000 000000
2017-06-10 02:10:09,0.01,0.14,0.00,26.75,29.73,32.18,13.68,45.33,1021.51,2020.98,3414.25,3045.98,3496.89,599.85,591.17,25.86,0000 0000 0000 0000 000000
2017-06-10 02:15:11,0.03,0.14,0.00,26.78,29.76,32.22,13.71,45.33,1021.52,2020.92,3413.75,3045.21,3496.07,599.90,591.31,25.91,0000 0000 0000 0000 000000
2017-06-10 02:20:12,-0.02,0.14,0.00,26.82,29.79,32.26,13.77,45.38,1021.54,2020.42,3412.99,3044.64,3495.24,600.13,591.41,25.96,0000 0000 0000 0000 000000
2017-06-10 02:25:13,0.01,0.14,0.00,26.86,29.82,32.30,13.73,45.33,1021.72,2020.09,3412.20,3044.01,3494.69,599.93,591.25,26.01,0000 0000 0000 0000 000000
2017-06-10 02:30:15,0.03,0.14,0.00,26.91,29.86,32.34,13.66,45.23,1021.67,2020.00,3411.80,3043.34,3493.99,599.75,590.95,26.06,0000 0000 0000 0000 000000
2017-06-10 02:35:16,0.02,0.14,0.00,26.96,29.89,32.37,13.79,45.29,1021.89,2020.00,3411.04,3042.94,3493.23,600.26,591.47,26.11,0000 0000 0000 0000 000000
2017-06-10 02:40:17,0.04,0.14,0.00,26.99,29.93,32.40,13.75,45.32,1021.98,2020.00,3410.37,3042.14,3492.75,599.74,590.97,26.16,0000 0000 0000 0000 000000
2017-06-10 02:45:19,0.01,0.14,0.00,27.05,29.96,32.44,13.76,45.38,1021.99,2019.97,3409.98,3041.94,3492.04,600.23,591.24,26.21,0000 0000 0000 0000 000000
2017-06-10 02:50:20,0.00,0.14,0.00,27.10,30.00,32.48,13.72,45.34,1021.99,2019.67,3409.32,3041.20,3491.58,600.21,591.18,26.26,0000 0000 0000 0000 000000
2017-06-10 02:55:21,-0.02,0.14,0.00,27.12,30.03,32.52,13.85,45.44,1022.00,2019.17,3408.94,3040.95,3491.01,600.04,590.89,26.31,0000 0000 0000 0000 000000
2017-06-10 03:00:23,0.04,0.14,0.00,27.16,30.07,32.56,13.79,45.50,1022.13,2019.02,3408.11,3040.16,3490.38,600.23,591.14,26.36,0000 0000 0000 0000 000000
2017-06-10 03:05:24,0.01,0.14,0.00,27.20,30.11,32.59,13.78,45.44,1022.25,2019.00,3407.53,3039.95,3489.86,600.06,590.92,26.41,0000 0000 0000 0000 000000
2017-06-10 03:10:25,0.04,0.15,0.00,27.22,30.14,32.63,13.82,45.41,1022.35,2019.00,3406.83,3039.15,3489.06,600.49,591.45,26.46,0000 0000 0000 0000 000000
2017-06-10 03:15:26,0.05,0.15,0.00,27.29,30.18,32.67,13.76,45.29,1022.47,2018.98,3405.78,3038.43,3488.37,600.25,591.05,26.52,0000 0000 0000 0000 000000
2017-06-10 03:20:28,0.01,0.15,0.00,27.34,30.21,32.71,13.76,45.34,1022.48,2018.91,3404.92,3037.90,3487.73,599.98,590.85,26.57,0000 0000 0000 0000 000000
2017-06-10 03:25:29,0.03,0.15,0.00,27.36,30.25,32.75,13.75,45.33,1022.48,2018.75,3404.04,3037.08,3486.96,599.94,590.73,26.62,0000 0000 0000 0000 000000
2017-06-10 03:30:30,-0.00,0.15,0.00,27.40,30.29,32.78,13.71,45.33,1022.48,2018.26,3403.09,3036.45,3486.10,600.09,590.78,26.67,0000 0000 0000 0000 000000
2017-06-10 03:35:31,0.01,0.15,0.00,27.44,30.33,32.82,13.78,45.34,1022.49,2018.03,3402.25,3036.00,3485.59,599.95,590.58,26.72,0000 0000 0000 0000 000000
2017-06-10 03:40:33,0.01,0.15,0.00,27.47,30.36,32.86,13.70,45.37,1022.49,2018.00,3402.00,3035.62,3485.02,600.08,590.49,26.77,0000 0000 0000 0000 000000
2017-06-10 03:45:34,0.02,0.15,0.00,27.52,30.40,32.89,13.75,45.47,1022.53,2018.00,3401.69,3035.06,3484.94,600.04,590.50,26.82,0000 0000 0000 0000 000000
2017-06-10 03:50:35,0.02,0.16,0.00,27.56,30.44,32.94,13.76,45.42,1022.62,2017.98,3401.03,3034.99,3484.16,600.38,590.79,26.87,0000 0000 0000 0000 000000
2017-06-10 03:55:37,0.01,0.16,0.00,27.61,30.47,32.97,13.76,45.38,1022.69,2017.89,3400.94,3034.61,3483.98,600.14,590.67,26.92,0000 0000 0000 0000 000000
2017-06-10 04:00:38,-0.01,0.16,0.00,27.64,30.51,33.01,13.69,45.27,1022.51,2017.51,3400.31,3034.04,3483.55,600.05,590.13,26.97,0000 0000 0000 0000 000000
2017-06-10 04:05:39,-0.02,0.16,0.00,27.68,30.54,33.03,13.72,45.39,1022.49,2017.12,3400.00,3033.98,3483.02,599.80,589.88,27.02,0000 0000 0000 0000 000000
2017-06-10 04:10:41,0.01,0.16,0.00,27.72,30.58,33.08,13.76,45.39,1022.49,2017.01,3399.77,3033.45,3482.91,600.00,590.08,27.07,0000 0000 0000 0000 000000
2017-06-10 04:15:42,0.02,0.16,0.00,27.75,30.61,33.11,13.67,45.36,1022.51,2017.00,3399.18,3033.04,3482.32,600.01,590.07,27.12,0000 0000 0000 0000 000000
2017-06-10 04:20:43,0.00,0.16,0.00,27.79,30.66,33.15,13.66,45.38,1022.65,2016.99,3399.00,3032.98,3481.99,599.94,590.03,27.17,0000 0000 0000 0000 000000
2017-06-10 04:25:44,0.03,0.16,0.00,27.82,30.69,33.18,13.78,45.39,1022.89,2016.96,3398.63,3032.49,3481.64,600.10,590.17,27.22,0000 0000 0000 0000 000000
2017-06-10 04:30:46,0.01,0.16,0.00,27.85,30.73,33.22,13.76,45.42,1022.91,2016.84,3398.05,3032.02,3481.05,600.34,590.43,27.27,0000 0000 0000 0000 000000
2017-06-10 04:35:47,-0.05,0.16,0.00,27.89,30.77,33.25,13.74,45.28,1022.92,2016.26,3397.90,3031.94,3480.93,599.90,589.77,27.32,0000 0000 0000 0000 000000
2017-06-10 04:40:48,0.04,0.16,0.00,27.92,30.81,33.29,13.71,45.33,1022.87,2016.06,3397.07,3031.11,3480.09,600.10,590.14,27.37,0000 0000 0000 0000 000000
2017-06-10 04:45:50,0.01,0.16,0.00,27.96,30.85,33.33,13.67,45.34,1022.95,2016.00,3396.85,3030.93,3479.70,600.04,589.90,27.42,0000 0000 0000 0000 000000
2017-06-10 04:50:51,0.04,0.16,0.00,28.00,30.89,33.36,13.67,45.36,1022.94,2016.00,3396.12,3030.25,3479.06,599.95,589.73,27.47,0000 0000 0000 0000 000000
2017-06-10 04:55:52,-0.00,0.16,0.00,28.02,30.93,33.40,13.70,45.37,1022.74,2015.94,3395.99,3030.01,3478.92,600.16,589.72,27.52,0000 0000 0000 0000 000000
2017-06-10 05:00:53,-0.01,0.16,0.00,28.04,30.96,33.43,13.68,45.36,1022.53,2015.65,3395.65,3029.94,3478.24,600.01,589.44,27.57,0000 0000 0000 0000 000000
2017-06-10 05:05:54,-0.01,0.16,0.00,28.09,31.00,33.46,13.70,45.48,1022.84,2015.09,3395.03,3029.19,3478.00,600.18,589.73,27.62,0000 0000 0000 0000 000000
2017-06-10 05:10:56,0.01,0.16,0.00,28.13,31.03,33.51,13.66,45.38,1022.96,2015.01,3394.81,3029.00,3477.55,599.73,589.31,27.67,0000 0000 0000 0000 000000
2017-06-10 05:15:57,0.01,0.16,0.00,28.14,31.07,33.54,13.72,45.36,1022.96,2015.00,3394.12,3028.87,3477.03,600.11,589.72,27.72,0000 0000 0000 0000 000000
2017-06-10 05:20:58,0.01,0.16,0.00,28.19,31.10,33.57,13.67,45.38,1022.96,2014.98,3394.00,3028.27,3476.99,600.34,589.68,27.77,0000 0000 0000 0000 000000
2017-06-10 05:26:00,0.01,0.16,0.00,28.22,31.13,33.60,13.68,45.42,1022.96,2014.95,3393.90,3028.01,3476.68,599.91,589.27,27.82,0000 0000 0000 0000 000000
2017-06-10 05:31:01,-0.04,0.16,0.00,28.26,31.16,33.63,13.67,45.34,1022.96,2014.37,3393.11,3027.90,3476.03,600.26,589.43,27.87,0000 0000 0000 0000 000000
2017-06-10 05:36:02,0.01,0.16,0.00,28.28,31.20,33.66,13.61,45.36,1022.95,2014.04,3392.98,3027.22,3475.92,599.56,588.78,27.92,0000 0000 0000 0000 000000
2017-06-10 05:41:04,0.02,0.16,0.00,28.31,31.23,33.69,13.66,45.17,1022.94,2014.00,3392.41,3027.00,3475.27,600.20,589.30,27.97,0000 0000 0000 0000 000000
2017-06-10 05:46:05,0.00,0.16,0.00,28.34,31.26,33.73,13.64,45.30,1022.96,2014.00,3392.02,3026.98,3475.01,599.80,588.94,28.02,0000 0000 0000 0000 000000
2017-06-10 05:51:07,0.01,0.16,0.00,28.38,31.30,33.76,13.61,45.39,1022.95,2013.99,3391.99,3026.66,3474.88,599.96,589.02,28.07,0000 0000 0000 0000 000000
2017-06-10 05:56:08,0.02,0.16,0.00,28.41,31.33,33.80,13.65,45.40,1022.96,2013.94,3391.71,3026.05,3474.18,600.03,589.12,28.12,0000 0000 0000 0000 000000
2017-06-10 06:01:09,-0.03,0.16,0.00,28.44,31.36,33.83,13.64,45.20,1022.95,2013.55,3391.06,3025.99,3473.98,600.00,588.98,28.17,0000 0000 0000 0000 000000
2017-06-10 06:06:10,-0.01,0.16,0.00,28.47,31.40,33.86,13.74,45.40,1022.94,2013.13,3391.00,3025.68,3473.66,600.07,589.05,28.22,0000 0000 0000 0000 000000
2017-06-10 06:11:12,0.02,0.16,0.00,28.49,31.44,33.89,13.68,45.27,1022.80,2013.02,3390.74,3025.05,3473.03,599.98,588.84,28.27,0000 0000 0000 0000 000000
2017-06-10 06:16:13,0.00,0.16,0.00,28.51,31.47,33.92,13.64,45.41,1022.95,2013.00,3390.19,3024.99,3472.98,599.87,588.76,28.32,0000 0000 0000 0000 000000
2017-06-10 06:21:14,0.00,0.16,0.00,28.56,31.51,33.96,13.73,45.46,1022.96,2013.00,3390.00,3024.93,3472.68,600.16,588.69,28.37,0000 0000 0000 0000 000000
2017-06-10 06:26:15,0.03,0.17,0.00,28.60,31.54,33.99,13.67,45.31,1022.95,2012.98,3389.86,3024.24,3472.06,599.75,588.33,28.42,0000 0000 0000 0000 000000
2017-06-10 06:31:16,0.00,0.17,0.00,28.62,31.57,34.02,13.65,45.27,1022.96,2012.85,3389.18,3024.00,3471.93,599.97,588.55,28.47,0000 0000 0000 0000 000000
2017-06-10 06:36:17,-0.03,0.16,0.00,28.66,31.61,34.06,13.66,45.38,1022.97,2012.41,3388.99,3023.97,3471.29,600.08,588.43,28.52,0000 0000 0000 0000 000000
2017-06-10 06:41:19,-0.01,0.16,0.00,28.70,31.64,34.09,13.64,45.28,1022.96,2012.12,3388.85,3023.64,3471.02,599.86,588.27,28.57,0000 0000 0000 0000 000000
2017-06-10 06:46:20,0.01,0.16,0.00,28.72,31.67,34.12,13.71,45.38,1022.96,2012.00,3388.08,3023.02,3470.89,600.25,588.63,28.62,0000 0000 0000 0000 000000
2017-06-10 06:51:22,0.01,0.17,0.00,28.74,31.71,34.15,13.71,45.36,1022.93,2012.00,3388.00,3022.98,3470.17,600.14,588.44,28.67,0000 0000 0000 0000 000000
2017-06-10 06:56:23,0.01,0.17,0.00,28.75,31.74,34.19,13.69,45.38,1022.85,2011.99,3387.82,3022.68,3470.00,600.17,588.36,28.72,0000 0000 0000 0000 000000
2017-06-10 07:01:24,0.02,0.17,0.00,28.76,31.76,34.21,13.69,45.33,1022.70,2011.97,3387.13,3022.09,3469.97,600.09,588.25,28.77,0000 0000 0000 0000 000000
2017-06-10 07:06:26,0.01,0.17,0.00,28.77,31.79,34.24,13.65,45.29,1022.88,2011.95,3387.00,3022.00,3469.71,600.05,588.34,28.82,0000 0000 0000 0000 000000
2017-06-10 07:11:27,-0.02,0.17,0.00,28.77,31.82,34.27,13.68,45.30,1022.95,2011.67,3386.90,3021.98,3469.07,599.88,588.14,28.87,0000 0000 0000 0000 000000
2017-06-10 07:16:28,-0.01,0.17,0.00,28.76,31.85,34.30,13.72,45.28,1022.95,2011.25,3386.21,3021.79,3469.00,600.04,588.38,28.92,0000 0000 0000 0000 000000
2017-06-10 07:21:30,0.00,0.17,0.00,28.78,31.87,34.32,13.63,45.23,1022.94,2011.06,3386.01,3021.15,3468.89,599.96,588.22,28.97,0000 0000 0000 0000 000000
2017-06-10 07:26:31,0.01,0.17,0.00,28.78,31.89,34.35,13.69,45.21,1022.96,2011.00,3386.00,3021.00,3468.31,599.84,588.14,29.02,0000 0000 0000 0000 000000
2017-06-10 07:31:32,0.00,0.17,0.00,28.78,31.91,34.37,13.66,45.17,1022.96,2011.00,3385.84,3021.00,3468.04,599.75,588.09,29.07,0000 0000 0000 0000 000000
2017-06-10 07:36:33,0.01,0.17,0.00,28.77,31.93,34.39,13.69,45.21,1022.96,2011.00,3385.24,3020.96,3468.00,600.15,588.44,29.12,0000 0000 0000 0000 000000
2017-06-10 07:41:34,0.00,0.17,0.00,28.77,31.95,34.41,13.74,45.21,1022.96,2011.00,3385.01,3020.73,3467.96,600.27,588.49,29.17,0000 0000 0000 0000 000000
2017-06-10 07:46:36,0.01,0.17,0.00,28.76,31.96,34.44,13.65,45.26,1022.96,2010.97,3384.99,3020.24,3467.67,599.90,588.28,29.22,0000 0000 0000 0000 000000
2017-06-10 07:51:37,-0.00,0.17,0.00,28.77,31.98,34.45,13.62,45.23,1022.96,2010.89,3384.87,3020.02,3467.10,600.02,588.32,29.27,0000 0000 0000 0000 000000
2017-06-10 07:56:38,-0.01,0.17,0.00,28.77,32.00,34.47,13.64,45.40,1022.96,2010.65,3384.23,3020.00,3467.01,599.87,588.19,29.32,0000 0000 0000 0000 000000
2017-06-10 08:01:39,0.01,0.17,0.00,28.76,32.01,34.49,13.63,45.21,1022.97,2010.73,3384.03,3020.00,3467.00,599.73,588.11,29.37,0000 0000 0000 0000 000000
2017-06-10 08:06:40,-0.02,0.17,0.00,28.75,32.02,34.51,13.65,45.30,1023.01,2010.52,3384.00,3019.98,3466.99,599.87,588.22,29.42,0000 0000 0000 0000 000000
2017-06-10 08:11:41,-0.02,0.17,0.00,28.74,32.03,34.53,13.69,45.25,1023.03,2010.24,3383.99,3019.91,3466.89,600.05,588.30,29.47,0000 0000 0000 0000 000000
2017-06-10 08:16:42,0.03,0.17,0.00,28.75,32.05,34.53,13.69,45.23,1022.99,2010.13,3383.62,3019.45,3466.38,600.32,588.74,29.52,0000 0000 0000 0000 000000
2017-06-10 08:21:44,0.00,0.17,0.00,28.77,32.05,34.55,13.64,45.23,1022.96,2010.05,3383.00,3019.01,3466.01,599.84,588.05,29.57,0000 0000 0000 0000 000000
2017-06-10 08:26:45,0.01,0.17,0.00,28.75,32.07,34.56,13.68,45.23,1022.98,2010.05,3382.54,3018.99,3465.91,599.75,588.14,29.62,0000 0000 0000 0000 000000
2017-06-10 08:31:46,0.02,0.17,0.00,28.73,32.08,34.58,13.73,45.31,1023.01,2010.00,3382.04,3018.66,3465.34,600.16,588.66,29.67,0000 0000 0000 0000 000000
2017-06-10 08:36:47,0.01,0.17,0.00,28.73,32.10,34.58,13.79,45.22,1022.98,2010.00,3381.96,3018.15,3465.02,600.33,588.67,29.72,0000 0000 0000 0000 000000
2017-06-10 08:41:49,0.01,0.17,0.00,28.72,32.10,34.58,13.64,45.17,1022.98,2010.00,3381.25,3018.01,3464.94,599.72,588.05,29.77,0000 0000 0000 0000 000000
2017-06-10 08:46:50,0.01,0.17,0.00,28.71,32.11,34.60,13.62,45.30,1023.00,2010.00,3380.99,3017.96,3464.36,599.78,588.24,29.82,0000 0000 0000 0000 000000
2017-06-10 08:51:51,0.03,0.17,0.00,28.71,32.12,34.60,13.73,45.29,1022.98,2010.00,3380.37,3017.42,3464.01,600.12,588.57,29.87,0000 0000 0000 0000 000000
2017-06-10 08:56:52,0.01,0.18,0.00,28.70,32.12,34.61,13.70,45.11,1022.97,2010.00,3380.00,3017.02,3463.97,599.97,588.45,29.92,0000 0000 0000 0000 000000
2017-06-10 09:01:54,0.02,0.18,0.00,28.69,32.13,34.63,13.65,45.26,1022.97,2010.00,3379.51,3017.00,3463.59,599.92,588.48,29.97,0000 0000 0000 0000 000000
2017-06-10 09:06:55,0.01,0.18,0.00,28.67,32.15,34.63,13.66,45.29,1022.96,2010.00,3379.03,3016.92,3463.07,599.72,588.22,30.02,0000 0000 0000 0000 000000
2017-06-10 09:11:56,0.01,0.18,0.00,28.67,32.15,34.63,13.69,45.30,1022.96,2010.00,3378.99,3016.52,3463.00,599.89,588.38,30.07,0000 0000 0000 0000 000000
2017-06-10 09:16:58,0.01,0.18,0.00,28.67,32.15,34.64,13.69,45.19,1022.96,2009.98,3378.66,3016.05,3462.98,599.71,588.08,30.12,0000 0000 0000 0000 000000
2017-06-10 09:21:59,0.01,0.18,0.00,28.66,32.16,34.64,13.71,45.41,1022.96,2009.98,3378.08,3016.00,3462.56,600.22,588.68,30.17,0000 0000 0000 0000 000000
2017-06-10 09:27:00,0.00,0.18,0.00,28.65,32.17,34.64,13.77,45.36,1022.96,2009.97,3378.00,3015.99,3462.14,600.15,588.61,30.23,0000 0000 0000 0000 000000
2017-06-10 09:32:02,0.00,0.18,0.00,28.64,32.17,34.65,13.69,45.27,1022.97,2009.96,3377.99,3015.98,3462.00,600.04,588.53,30.28,0000 0000 0000 0000 000000
2017-06-10 09:37:03,0.01,0.18,0.00,28.64,32.17,34.67,13.66,45.23,1022.99,2009.95,3377.76,3015.87,3462.00,600.17,588.73,30.33,0000 0000 0000 0000 000000
2017-06-10 09:42:04,0.02,0.18,0.00,28.62,32.17,34.67,13.73,45.25,1022.98,2009.94,3377.08,3015.34,3461.97,599.69,588.29,30.38,0000 0000 0000 0000 000000
2017-06-10 09:47:06,0.00,0.18,0.00,28.61,32.18,34.66,13.72,45.29,1022.96,2009.95,3377.01,3015.15,3461.92,600.03,588.68,30.43,0000 0000 0000 0000 000000
2017-06-10 09:52:07,0.01,0.18,0.00,28.61,32.19,34.66,13.68,45.29,1022.96,2009.96,3377.00,3015.03,3461.69,600.03,588.69,30.48,0000 0000 0000 0000 000000
2017-06-10 09:57:08,0.01,0.18,0.00,28.60,32.19,34.67,13.71,45.36,1022.96,2009.96,3376.98,3015.00,3461.33,599.99,588.67,30.53,0000 0000 0000 0000 000000
2017-06-10 10:02:09,0.00,0.18,0.00,28.61,32.19,34.67,13.66,45.23,1022.96,2009.91,3376.65,3015.00,3461.05,599.46,588.08,30.58,0000 0000 0000 0000 000000
2017-06-10 10:07:11,0.00,0.18,0.00,28.58,32.19,34.65,13.67,45.23,1022.96,2009.87,3376.15,3014.98,3461.00,600.00,588.71,30.63,0000 0000 0000 0000 000000
2017-06-10 10:12:12,0.01,0.18,0.00,28.58,32.19,34.65,13.78,45.29,1022.97,2009.91,3376.00,3014.95,3461.00,599.86,588.48,30.68,0000 0000 0000 0000 000000
2017-06-10 10:17:13,0.01,0.18,0.00,28.58,32.18,34.65,13.67,45.18,1022.98,2009.94,3376.00,3014.69,3460.96,599.95,588.66,30.73,0000 0000 0000 0000 000000
2017-06-10 10:22:14,0.01,0.18,0.00,28.57,32.18,34.65,13.76,45.24,1022.97,2009.96,3375.94,3014.19,3460.75,600.26,588.94,30.78,0000 0000 0000 0000 000000
2017-06-10 10:27:16,0.01,0.19,0.00,28.56,32.18,34.66,13.79,45.29,1022.98,2009.94,3375.50,3014.02,3460.30,600.22,588.83,30.83,0000 0000 0000 0000 000000
2017-06-10 10:32:17,0.00,0.19,0.00,28.55,32.17,34.65,13.78,45.21,1023.08,2009.93,3375.06,3014.00,3460.02,600.27,589.06,30.88,0000 0000 0000 0000 000000
2017-06-10 10:37:18,0.00,0.19,0.00,28.55,32.17,34.65,13.71,45.15,1023.06,2009.92,3375.01,3014.00,3460.00,599.87,588.77,30.93,0000 0000 0000 0000 000000
2017-06-10 10:42:19,0.00,0.19,0.00,28.56,32.17,34.65,13.66,45.19,1022.98,2009.94,3375.00,3014.00,3460.00,600.03,588.75,30.98,0000 0000 0000 0000 000000
2017-06-10 10:47:20,0.00,0.19,0.00,28.60,32.17,34.61,13.68,45.18,1023.07,2009.96,3374.99,3013.99,3459.99,600.00,588.57,31.03,0000 0000 0000 0000 000000
2017-06-10 10:52:22,0.00,0.19,0.00,28.72,32.18,34.54,13.69,45.22,1023.08,2009.95,3374.86,3013.85,3459.91,600.19,588.64,31.08,0000 0000 0000 0000 000000
2017-06-10 10:57:23,0.02,0.19,0.00,28.82,32.19,34.51,13.71,45.10,1023.10,2009.96,3374.50,3013.55,3459.66,599.99,588.21,31.13,0000 0000 0000 0000 000000
2017-06-10 11:02:24,0.02,0.19,0.00,28.93,32.20,34.54,13.68,45.15,1023.00,2009.93,3374.12,3013.15,3459.16,600.16,588.17,31.18,0000 0000 0000 0000 000000
2017-06-10 11:07:25,-0.00,0.19,0.00,29.00,32.21,34.58,13.67,45.21,1023.21,2009.90,3374.01,3013.02,3459.01,600.11,588.00,31.23,0000 0000 0000 0000 000000
2017-06-10 11:12:26,0.00,0.19,0.00,29.07,32.22,34.63,13.66,45.25,1023.27,2009.87,3374.00,3013.00,3459.00,599.84,587.75,31.28,0000 0000 0000 0000 000000
2017-06-10 11:17:28,-0.03,0.19,0.00,29.12,32.25,34.68,13.67,45.18,1022.99,2009.62,3373.68,3012.95,3458.86,600.25,587.85,31.33,0000 0000 0000 0000 000000
2017-06-10 11:22:29,0.01,0.19,0.00,29.18,32.26,34.71,13.67,45.02,1022.99,2009.25,3373.12,3012.62,3458.30,600.39,587.83,31.38,0000 0000 0000 0000 000000
2017-06-10 11:27:30,-0.00,0.19,0.00,29.23,32.28,34.75,13.66,45.06,1023.09,2009.13,3373.01,3012.19,3458.03,599.89,587.35,31.43,0000 0000 0000 0000 000000
2017-06-10 11:32:31,0.00,0.19,0.00,29.25,32.30,34.77,13.58,45.02,1023.15,2009.03,3372.99,3012.01,3458.00,599.79,587.29,31.48,0000 0000 0000 0000 000000
2017-06-10 11:37:32,0.01,0.19,0.00,29.26,32.32,34.80,13.66,45.17,1023.13,2009.01,3372.68,3012.00,3457.95,599.84,587.29,31.53,0000 0000 0000 0000 000000
2017-06-10 11:42:34,0.01,0.19,0.00,29.25,32.34,34.82,13.70,44.96,1023.12,2009.00,3372.10,3012.00,3457.70,599.76,587.19,31.58,0000 0000 0000 0000 000000
2017-06-10 11:47:35,0.01,0.19,0.00,29.23,32.36,34.84,13.69,45.08,1022.98,2009.00,3372.01,3011.95,3457.23,600.32,587.72,31.63,0000 0000 0000 0000 000000
2017-06-10 11:52:36,0.00,0.19,0.00,29.19,32.37,34.87,13.69,45.09,1022.97,2009.00,3372.00,3011.82,3457.03,600.11,587.52,31.68,0000 0000 0000 0000 000000
2017-06-10 11:57:37,0.01,0.19,0.00,29.15,32.39,34.87,13.68,45.13,1022.96,2009.00,3371.98,3011.36,3457.00,600.07,587.51,31.73,0000 0000 0000 0000 000000
2017-06-10 12:02:38,0.00,0.19,0.00,29.11,32.40,34.88,13.68,45.04,1022.96,2009.00,3371.85,3011.06,3457.00,600.16,587.80,31.78,0000 0000 0000 0000 000000
2017-06-10 12:07:39,0.01,0.19,0.00,29.09,32.41,34.90,13.65,45.14,1022.97,2009.00,3371.20,3011.00,3456.96,599.79,587.48,31.83,0000 0000 0000 0000 000000
2017-06-10 12:12:41,0.00,0.19,0.00,29.06,32.42,34.89,13.68,45.09,1022.96,2009.00,3371.05,3011.00,3456.81,600.03,587.76,31.88,0000 0000 0000 0000 000000
2017-06-10 12:17:42,0.00,0.19,0.00,29.03,32.42,34.90,13.71,45.17,1022.96,2008.98,3371.00,3010.98,3456.11,600.14,588.01,31.93,0000 0000 0000 0000 000000
2017-06-10 12:22:43,-0.00,0.19,0.00,28.99,32.43,34.90,13.66,45.17,1022.96,2008.96,3370.99,3010.98,3456.03,599.85,587.59,31.98,0000 0000 0000 0000 000000
2017-06-10 12:27:44,-0.00,0.19,0.00,28.98,32.45,34.90,13.68,45.12,1022.96,2008.94,3370.88,3010.95,3456.01,599.90,587.85,32.03,0000 0000 0000 0000 000000
2017-06-10 12:32:46,0.01,0.19,0.00,28.96,32.45,34.90,13.73,45.19,1022.94,2008.92,3370.53,3010.74,3456.00,600.10,587.96,32.08,0000 0000 0000 0000 000000
2017-06-10 12:37:47,0.01,0.19,0.00,28.95,32.45,34.90,13.72,45.10,1022.96,2008.81,3370.05,3010.28,3456.00,599.70,587.59,32.13,0000 0000 0000 0000 000000
2017-06-10 12:42:49,0.00,0.19,0.00,28.94,32.45,34.89,13.70,45.15,1022.94,2008.83,3370.01,3010.13,3455.99,600.14,588.04,32.18,0000 0000 0000 0000 000000
2017-06-10 12:47:50,-0.00,0.19,0.00,28.94,32.45,34.89,13.60,45.12,1022.92,2008.80,3370.00,3010.05,3455.96,599.66,587.61,32.23,0000 0000 0000 0000 000000
2017-06-10 12:52:51,0.00,0.19,0.00,28.92,32.45,34.89,13.68,45.06,1022.85,2008.75,3369.99,3010.02,3455.79,599.98,587.97,32.28,0000 0000 0000 0000 000000
2017-06-10 12:57:53,0.02,0.19,0.00,28.91,32.45,34.89,13.70,45.04,1022.81,2008.88,3369.96,3010.00,3455.68,600.04,588.03,32.33,0000 0000 0000 0000 000000